Location: Dzierzno
(50.6159°N, 19.2852°E)
Time: 07:54:15
(UTC+00:00)

Helios 1A Rocket - Pass Details

Date: 18 November 2025
Orbit: 438 x 450 km, 98.3° (Epoch: 13 December)

Event Time Altitude Azimuth Distance (km) Brightness Sun altitude
Exits shadow 17:20:21 26° 196° (SSW) 909 4.1 -23.1°
Drops below altitude 10° 17:21:57 10° 196° (SSW) 1,568 5.3 -23.3°
Sets 17:23:58 0° 196° (SSW) 2,438 6.4 -23.6°
